Home   Weather   Tuba City   Past weeks
Flag for USA

Past Weather in Tuba City, Arizona, USA — Yesterday and Last 2 Weeks

Now
54 °F

Sunny.


Feels Like: 51 °F
Forecast: 71 / 41 °F
Wind: 10 mph from Northeast

Location: Grand Canyon National Park Airport

Current Time: Apr 22, 2019 at 10:49:18 am

Latest Report: Apr 22, 2019 at 9:54 am


Visibility: 10 mi

Pressure: 29.90 "Hg (24.95 "Hg at 1510m altitude)

Humidity: 45%

Dew Point: 33 °F

Location of Tuba CityLocation

Past Weather in Tuba City — Graph

°F

Tuba City Temperature Yesterday

Maximum temperature yesterday: 63 °F (at 2:54 pm)
Minimum temperature yesterday: 32 °F (at 6:54 am)
Average temperature yesterday: 51 °F

High & Low Weather Summary for the Past Weeks

 TemperatureHumidityPressure
High74 °F (Apr 19, 2:54 pm)97% (Apr 16, 8:21 pm)30.25 "Hg (Apr 16, 8:21 pm)
Low21 °F (Apr 13, 6:54 am)9% (Apr 19, 5:54 pm)29.52 "Hg (Apr 9, 11:54 pm)
Average45 °F52%29.92 "Hg
* Reported Apr 7 8:54 am — Apr 22 8:54 am, Tuba City. Weather by CustomWeather, © 2019

Note: Actual official high and low records may vary slightly from our data, if they occured in-between our weather recording intervals... More about our weather records

Advertising

Tuba City Weather History for the Previous 24 Hours

Scroll right to see more
 ConditionsComfort  
Time TempWeatherWind HumidityBarometerVisibility
8:54 am
Mon, Apr 22
50 °FSunny.8 mph54%29.90 "Hg10 mi
7:54 am36 °FSunny.3 mph73%29.94 "Hg10 mi
6:54 am27 °FSunny.No wind92%29.94 "Hg10 mi
5:54 am27 °FClear.No wind89%29.92 "Hg10 mi
4:54 am30 °FClear.No wind85%29.92 "Hg10 mi
3:54 am30 °FClear.5 mph89%29.92 "Hg10 mi
2:54 am31 °FPassing clouds.No wind89%29.92 "Hg10 mi
1:54 am35 °FClear.No wind82%29.92 "Hg10 mi
12:54 am36 °FPassing clouds.3 mph85%29.93 "Hg10 mi
11:54 pm
Sun, Apr 21
44 °FClear.3 mph68%29.90 "Hg10 mi
10:54 pm45 °FClear.5 mph63%29.87 "Hg10 mi
9:54 pm49 °FPassing clouds.7 mph52%29.84 "Hg10 mi
8:54 pm51 °FOvercast.7 mph39%29.83 "Hg10 mi
7:54 pm56 °FOvercast.8 mph32%29.82 "Hg10 mi
6:54 pm58 °FSunny.9 mph25%29.85 "Hg10 mi
5:54 pm62 °FScattered clouds.12 mph18%29.80 "Hg10 mi
4:54 pm62 °FPassing clouds.14 mph18%29.76 "Hg10 mi
3:54 pm63 °FSunny.14 mph17%29.75 "Hg10 mi
2:54 pm63 °FPassing clouds.13 mph17%29.79 "Hg10 mi
1:54 pm61 °FPassing clouds.12 mph24%29.79 "Hg10 mi
12:54 pm60 °FSunny.20 mph24%29.80 "Hg10 mi
11:54 am58 °FSunny.20 mph26%29.80 "Hg10 mi
10:54 am57 °FSunny.17 mph29%29.80 "Hg10 mi
Weather by CustomWeather, © 2019

See weather overview